Time,TemperatureF,DewpointF,PressureIn,WindDirection,WindDirectionDegrees,WindSpeedMPH,WindSpeedGustMPH,Humidity,HourlyPrecipIn,Conditions,Clouds,dailyrainin,SoftwareType,DateUTC
2013-07-25 00:02:00,74.0,69.0,-100.00,ENE,68,0.0,-999.0,84,-99.99,,,-99.99,,2013-07-25 05:02:00,
2013-07-25 00:22:00,74.0,69.0,-100.00,SSE,158,1.0,-999.0,82,-99.99,,,-99.99,,2013-07-25 05:22:00,
2013-07-25 00:32:00,73.0,68.0,-100.00,East,90,0.0,-999.0,85,-99.99,,,-99.99,,2013-07-25 05:32:00,
2013-07-25 00:43:00,73.0,68.0,-100.00,East,90,0.0,-999.0,85,-99.99,,,-99.99,,2013-07-25 05:43:00,
2013-07-25 00:52:00,73.0,69.0,-100.00,ESE,113,0.0,-999.0,87,-99.99,,,-99.99,,2013-07-25 05:52:00,
2013-07-25 01:02:00,72.0,69.0,-100.00,ESE,113,1.0,-999.0,89,-99.99,,,-99.99,,2013-07-25 06:02:00,
2013-07-25 01:22:00,73.0,69.0,-100.00,ESE,113,1.0,-999.0,88,-99.99,,,-99.99,,2013-07-25 06:22:00,
2013-07-25 01:32:00,72.0,69.0,-100.00,SSE,158,1.0,-999.0,88,-99.99,,,-99.99,,2013-07-25 06:32:00,
2013-07-25 01:42:00,72.0,69.0,-100.00,SSE,158,1.0,-999.0,88,-99.99,,,-99.99,,2013-07-25 06:42:00,
2013-07-25 01:52:00,72.0,69.0,-100.00,East,90,0.0,-999.0,88,-99.99,,,-99.99,,2013-07-25 06:52:00,
2013-07-25 02:02:00,72.0,69.0,-100.00,East,90,0.0,-999.0,89,-99.99,,,-99.99,,2013-07-25 07:02:00,
2013-07-25 02:12:00,72.0,69.0,-100.00,East,90,0.0,-999.0,89,-99.99,,,-99.99,,2013-07-25 07:12:00,
2013-07-25 02:22:00,72.0,69.0,-100.00,ESE,113,0.0,-999.0,89,-99.99,,,-99.99,,2013-07-25 07:22:00,
2013-07-25 02:32:00,73.0,69.0,-100.00,SE,135,0.0,-999.0,88,-99.99,,,-99.99,,2013-07-25 07:32:00,
2013-07-25 02:43:00,73.0,69.0,-100.00,SE,135,0.0,-999.0,88,-99.99,,,-99.99,,2013-07-25 07:43:00,
2013-07-25 02:53:00,73.0,69.0,-100.00,ESE,113,2.0,-999.0,87,-99.99,,,-99.99,,2013-07-25 07:53:00,
2013-07-25 03:02:00,72.0,69.0,-100.00,ESE,113,2.0,-999.0,88,-99.99,,,-99.99,,2013-07-25 08:02:00,
2013-07-25 03:12:00,72.0,69.0,-100.00,ESE,113,2.0,-999.0,88,-99.99,,,-99.99,,2013-07-25 08:12:00,
2013-07-25 03:22:00,72.0,69.0,-100.00,ENE,68,2.0,-999.0,90,-99.99,,,-99.99,,2013-07-25 08:22:00,
2013-07-25 03:32:00,72.0,69.0,-100.00,East,90,3.0,-999.0,89,-99.99,,,-99.99,,2013-07-25 08:32:00,
2013-07-25 03:44:00,72.0,69.0,-100.00,East,90,3.0,-999.0,89,-99.99,,,-99.99,,2013-07-25 08:44:00,
2013-07-25 03:52:00,73.0,68.0,-100.00,SE,135,3.0,-999.0,85,-99.99,,,-99.99,,2013-07-25 08:52:00,
2013-07-25 04:02:00,73.0,68.0,-100.00,SE,135,4.0,-999.0,82,-99.99,,,-99.99,,2013-07-25 09:02:00,
2013-07-25 04:12:00,73.0,68.0,-100.00,SE,135,4.0,-999.0,82,-99.99,,,-99.99,,2013-07-25 09:12:00,
2013-07-25 04:22:00,73.0,68.0,-100.00,SE,135,3.0,-999.0,82,-99.99,,,-99.99,,2013-07-25 09:22:00,
2013-07-25 04:33:00,73.0,68.0,-100.00,SE,135,1.0,-999.0,82,-99.99,,,-99.99,,2013-07-25 09:33:00,
2013-07-25 04:43:00,73.0,68.0,-100.00,SE,135,1.0,-999.0,82,-99.99,,,-99.99,,2013-07-25 09:43:00,
2013-07-25 04:52:00,73.0,67.0,-100.00,ESE,113,2.0,-999.0,83,-99.99,,,-99.99,,2013-07-25 09:52:00,
2013-07-25 05:02:00,72.0,68.0,-100.00,SSE,158,4.0,-999.0,85,-99.99,,,-99.99,,2013-07-25 10:02:00,
2013-07-25 05:12:00,72.0,68.0,-100.00,SSE,158,4.0,-999.0,85,-99.99,,,-99.99,,2013-07-25 10:12:00,
2013-07-25 05:22:00,72.0,68.0,-100.00,SSE,158,2.0,-999.0,87,-99.99,,,-99.99,,2013-07-25 10:22:00,
2013-07-25 05:32:00,72.0,68.0,-100.00,East,90,0.0,-999.0,87,-99.99,,,-99.99,,2013-07-25 10:32:00,
2013-07-25 05:42:00,72.0,68.0,-100.00,East,90,0.0,-999.0,87,-99.99,,,-99.99,,2013-07-25 10:42:00,
2013-07-25 05:53:00,72.0,68.0,-100.00,East,90,1.0,-999.0,87,-99.99,,,-99.99,,2013-07-25 10:53:00,
2013-07-25 06:02:00,72.0,68.0,-100.00,East,90,0.0,-999.0,88,-99.99,,,-99.99,,2013-07-25 11:02:00,
2013-07-25 06:22:00,72.0,68.0,-100.00,SSE,158,2.0,-999.0,87,-99.99,,,-99.99,,2013-07-25 11:22:00,
2013-07-25 06:32:00,72.0,68.0,-100.00,SSE,158,0.0,-999.0,86,-99.99,,,-99.99,,2013-07-25 11:32:00,
2013-07-25 06:43:00,72.0,68.0,-100.00,SSE,158,0.0,-999.0,86,-99.99,,,-99.99,,2013-07-25 11:43:00,
2013-07-25 06:52:00,72.0,67.0,-100.00,SE,135,2.0,-999.0,84,-99.99,,,-99.99,,2013-07-25 11:52:00,
2013-07-25 07:02:00,73.0,67.0,-100.00,ESE,113,2.0,-999.0,83,-99.99,,,-99.99,,2013-07-25 12:02:00,
2013-07-25 07:12:00,73.0,67.0,-100.00,ESE,113,2.0,-999.0,83,-99.99,,,-99.99,,2013-07-25 12:12:00,
2013-07-25 07:22:00,73.0,67.0,-100.00,ESE,113,1.0,-999.0,83,-99.99,,,-99.99,,2013-07-25 12:22:00,
2013-07-25 07:32:00,73.0,68.0,-100.00,ENE,68,1.0,-999.0,85,-99.99,,,-99.99,,2013-07-25 12:32:00,
2013-07-25 07:45:00,73.0,68.0,-100.00,ENE,68,1.0,-999.0,85,-99.99,,,-99.99,,2013-07-25 12:45:00,
2013-07-25 07:53:00,74.0,68.0,-100.00,SE,135,2.0,-999.0,82,-99.99,,,-99.99,,2013-07-25 12:53:00,
2013-07-25 08:02:00,74.0,68.0,-100.00,South,180,2.0,-999.0,80,-99.99,,,-99.99,,2013-07-25 13:02:00,
2013-07-25 08:33:00,74.0,67.0,-100.00,SE,135,4.0,-999.0,78,-99.99,,,-99.99,,2013-07-25 13:33:00,
2013-07-25 08:42:00,74.0,67.0,-100.00,SE,135,4.0,-999.0,78,-99.99,,,-99.99,,2013-07-25 13:42:00,
2013-07-25 09:33:00,77.0,68.0,-100.00,SE,135,4.0,-999.0,75,-99.99,,,-99.99,,2013-07-25 14:33:00,
2013-07-25 09:43:00,77.0,68.0,-100.00,SE,135,4.0,-999.0,75,-99.99,,,-99.99,,2013-07-25 14:43:00,
2013-07-25 10:44:00,81.0,71.0,-100.00,SE,135,4.0,-999.0,73,-99.99,,,-99.99,,2013-07-25 15:44:00,
2013-07-25 12:53:00,83.0,72.0,-100.00,SE,135,5.0,-999.0,69,-99.99,,,-99.99,,2013-07-25 17:53:00,
2013-07-25 13:02:00,83.0,72.0,-100.00,SSE,158,8.0,-999.0,69,-99.99,,,-99.99,,2013-07-25 18:02:00,
2013-07-25 13:12:00,83.0,72.0,-100.00,SSE,158,8.0,-999.0,69,-99.99,,,-99.99,,2013-07-25 18:12:00,
2013-07-25 13:22:00,84.0,73.0,-100.00,South,180,4.0,-999.0,69,-99.99,,,-99.99,,2013-07-25 18:22:00,
2013-07-25 15:02:00,84.0,70.0,-100.00,SSW,203,2.0,-999.0,62,-99.99,,,-99.99,,2013-07-25 20:02:00,
2013-07-25 15:12:00,84.0,70.0,-100.00,SSW,203,2.0,-999.0,62,-99.99,,,-99.99,,2013-07-25 20:12:00,
2013-07-25 15:22:00,84.0,71.0,-100.00,SSW,203,0.0,-999.0,65,-99.99,,,-99.99,,2013-07-25 20:22:00,
2013-07-25 15:32:00,83.0,71.0,-100.00,South,180,0.0,-999.0,67,-99.99,,,-99.99,,2013-07-25 20:32:00,
2013-07-25 15:43:00,83.0,71.0,-100.00,South,180,0.0,-999.0,67,-99.99,,,-99.99,,2013-07-25 20:43:00,
2013-07-25 15:53:00,81.0,71.0,-100.00,SSW,203,2.0,-999.0,70,-99.99,,,-99.99,,2013-07-25 20:53:00,
2013-07-25 16:02:00,80.0,72.0,-100.00,South,180,6.0,-999.0,75,-99.99,,,-99.99,,2013-07-25 21:02:00,
2013-07-25 16:12:00,80.0,72.0,-100.00,South,180,6.0,-999.0,75,-99.99,,,-99.99,,2013-07-25 21:12:00,
2013-07-25 16:22:00,80.0,72.0,-100.00,SSE,158,8.0,-999.0,77,-99.99,,,-99.99,,2013-07-25 21:22:00,
2013-07-25 16:32:00,80.0,72.0,-100.00,South,180,6.0,-999.0,77,-99.99,,,-99.99,,2013-07-25 21:32:00,
2013-07-25 16:44:00,80.0,72.0,-100.00,South,180,6.0,-999.0,77,-99.99,,,-99.99,,2013-07-25 21:44:00,
2013-07-25 16:52:00,80.0,71.0,-100.00,South,180,4.0,-999.0,75,-99.99,,,-99.99,,2013-07-25 21:52:00,
2013-07-25 17:02:00,79.0,70.0,-100.00,South,180,5.0,-999.0,73,-99.99,,,-99.99,,2013-07-25 22:02:00,
2013-07-25 17:22:00,81.0,71.0,-100.00,SSE,158,6.0,-999.0,72,-99.99,,,-99.99,,2013-07-25 22:22:00,
2013-07-25 18:32:00,81.0,71.0,-100.00,SSE,158,7.0,-999.0,71,-99.99,,,-99.99,,2013-07-25 23:32:00,
2013-07-25 18:43:00,81.0,71.0,-100.00,SSE,158,7.0,-999.0,71,-99.99,,,-99.99,,2013-07-25 23:43:00,
2013-07-25 18:52:00,81.0,70.0,-100.00,SSE,158,11.0,-999.0,70,-99.99,,,-99.99,,2013-07-25 23:52:00,
2013-07-25 19:02:00,81.0,70.0,-100.00,South,180,10.0,-999.0,69,-99.99,,,-99.99,,2013-07-26 00:02:00,
2013-07-25 19:22:00,81.0,70.0,-100.00,SSE,158,8.0,-999.0,69,-99.99,,,-99.99,,2013-07-26 00:22:00,
2013-07-25 19:33:00,81.0,70.0,-100.00,SSE,158,8.0,-999.0,69,-99.99,,,-99.99,,2013-07-26 00:33:00,
2013-07-25 19:43:00,81.0,70.0,-100.00,SSE,158,8.0,-999.0,69,-99.99,,,-99.99,,2013-07-26 00:43:00,
2013-07-25 19:52:00,81.0,71.0,-100.00,SSE,158,8.0,-999.0,72,-99.99,,,-99.99,,2013-07-26 00:52:00,
2013-07-25 20:02:00,80.0,71.0,-100.00,SSE,158,10.0,-999.0,74,-99.99,,,-99.99,,2013-07-26 01:02:00,
2013-07-25 20:12:00,80.0,71.0,-100.00,SSE,158,10.0,-999.0,74,-99.99,,,-99.99,,2013-07-26 01:12:00,
2013-07-25 20:22:00,80.0,71.0,-100.00,SSE,158,12.0,-999.0,75,-99.99,,,-99.99,,2013-07-26 01:22:00,
2013-07-25 20:32:00,79.0,71.0,-100.00,SSW,203,2.0,-999.0,77,-99.99,,,-99.99,,2013-07-26 01:32:00,
2013-07-25 20:43:00,79.0,71.0,-100.00,SSW,203,2.0,-999.0,77,-99.99,,,-99.99,,2013-07-26 01:43:00,
2013-07-25 20:52:00,79.0,72.0,-100.00,SSE,158,5.0,-999.0,79,-99.99,,,-99.99,,2013-07-26 01:52:00,
2013-07-25 21:02:00,78.0,72.0,-100.00,SSE,158,4.0,-999.0,80,-99.99,,,-99.99,,2013-07-26 02:02:00,
2013-07-25 21:12:00,78.0,72.0,-100.00,SSE,158,4.0,-999.0,80,-99.99,,,-99.99,,2013-07-26 02:12:00,
2013-07-25 21:22:00,78.0,72.0,-100.00,ESE,113,3.0,-999.0,81,-99.99,,,-99.99,,2013-07-26 02:22:00,
2013-07-25 21:32:00,78.0,72.0,-100.00,South,180,1.0,-999.0,82,-99.99,,,-99.99,,2013-07-26 02:32:00,
2013-07-25 21:43:00,78.0,72.0,-100.00,South,180,1.0,-999.0,82,-99.99,,,-99.99,,2013-07-26 02:43:00,
2013-07-25 21:52:00,78.0,72.0,-100.00,SSE,158,4.0,-999.0,83,-99.99,,,-99.99,,2013-07-26 02:52:00,
2013-07-25 22:02:00,77.0,73.0,-100.00,South,180,1.0,-999.0,85,-99.99,,,-99.99,,2013-07-26 03:02:00,
2013-07-25 22:22:00,77.0,73.0,-100.00,SSE,158,3.0,-999.0,86,-99.99,,,-99.99,,2013-07-26 03:22:00,
2013-07-25 22:32:00,77.0,73.0,-100.00,South,180,3.0,-999.0,87,-99.99,,,-99.99,,2013-07-26 03:32:00,
2013-07-25 22:43:00,77.0,73.0,-100.00,South,180,3.0,-999.0,87,-99.99,,,-99.99,,2013-07-26 03:43:00,
2013-07-25 22:53:00,77.0,73.0,-100.00,South,180,0.0,-999.0,88,-99.99,,,-99.99,,2013-07-26 03:53:00,
2013-07-25 23:02:00,76.0,73.0,-100.00,South,180,1.0,-999.0,89,-99.99,,,-99.99,,2013-07-26 04:02:00,
2013-07-25 23:12:00,76.0,73.0,-100.00,South,180,1.0,-999.0,89,-99.99,,,-99.99,,2013-07-26 04:12:00,
2013-07-25 23:22:00,76.0,73.0,-100.00,SSE,158,2.0,-999.0,90,-99.99,,,-99.99,,2013-07-26 04:22:00,
2013-07-25 23:32:00,76.0,73.0,-100.00,SSE,158,0.0,-999.0,90,-99.99,,,-99.99,,2013-07-26 04:32:00,
2013-07-25 23:42:00,76.0,73.0,-100.00,SSE,158,0.0,-999.0,90,-99.99,,,-99.99,,2013-07-26 04:42:00,
2013-07-25 23:53:00,76.0,73.0,-100.00,ESE,113,2.0,-999.0,90,-99.99,,,-99.99,,2013-07-26 04:53:00,